• în Republica Moldova
  • Lista ţărilor
  • Pe 7 zile
  • Temperatura apei
  • Hartă satelitară
  • Meteo pe hartă
  • Widget-uri
  • user-avatar
    Intrare

    Meteo pe oră la Mishukovo

    Astăzi, 16 Noiembrie, Vineri

    Timp Temperatura Precipitaţii Vânt Presiune Umiditate
    00:00 0°C° 0 mm 1 m/s 756 mmHg 90%
    01:00 -1°C° 0 mm 1 m/s 757 mmHg 90%
    02:00 -1°C° 0 mm 1 m/s 757 mmHg 91%
    03:00 -1°C° 0 mm 1 m/s 757 mmHg 91%
    04:00 -1°C° 0 mm 1 m/s 757 mmHg 91%
    05:00 -1°C° 0 mm 1 m/s 758 mmHg 91%
    06:00 -1°C° 0 mm 1 m/s 758 mmHg 91%
    07:00 -1°C° 0 mm 1 m/s 758 mmHg 90%
    08:00 -1°C° 0 mm 1 m/s 758 mmHg 90%
    09:00 0°C° 0 mm 1 m/s 759 mmHg 86%
    10:00 +1°C° 0 mm 1 m/s 759 mmHg 82%
    11:00 +2°C° 0 mm 1 m/s 759 mmHg 78%
    12:00 +2°C° 0 mm 1 m/s 759 mmHg 79%
    13:00 +2°C° 0 mm 1 m/s 759 mmHg 80%
    14:00 +2°C° 0 mm 1 m/s 759 mmHg 81%
    15:00 +1°C° 0 mm 1 m/s 759 mmHg 83%
    16:00 0°C° 0 mm 1 m/s 759 mmHg 85%
    17:00 -1°C° 0 mm 1 m/s 759 mmHg 88%
    18:00 -1°C° 0 mm 1 m/s 759 mmHg 88%
    19:00 -1°C° 0 mm 1 m/s 759 mmHg 88%
    20:00 -1°C° 0 mm 1 m/s 759 mmHg 89%
    21:00 -3°C° 0 mm 2 m/s 759 mmHg 88%
    22:00 -3°C° 0 mm 2 m/s 759 mmHg 88%
    23:00 -3°C° 0 mm 2 m/s 758 mmHg 87%

    Mâine, 17 Noiembrie, Sâmbătă

    Timp Temperatura Precipitaţii Vânt Presiune Umiditate
    00:00 -3°C° 0 mm 2 m/s 758 mmHg 87%
    01:00 -3°C° 0 mm 2 m/s 758 mmHg 86%
    02:00 -3°C° 0 mm 2 m/s 758 mmHg 86%
    03:00 -3°C° 0 mm 2 m/s 757 mmHg 86%
    04:00 -3°C° 0 mm 2 m/s 757 mmHg 87%
    05:00 -4°C° 0 mm 3 m/s 756 mmHg 87%
    06:00 -4°C° 0 mm 3 m/s 756 mmHg 87%
    07:00 -4°C° 0 mm 3 m/s 756 mmHg 88%
    08:00 -4°C° 0 mm 3 m/s 755 mmHg 88%
    09:00 -2°C° 0 mm 3 m/s 755 mmHg 85%
    10:00 -2°C° 0 mm 4 m/s 754 mmHg 83%
    11:00 -1°C° 0 mm 4 m/s 754 mmHg 80%
    12:00 -1°C° 0.2 mm 4 m/s 753 mmHg 81%
    13:00 -1°C° 0.2 mm 4 m/s 752 mmHg 82%
    14:00 -1°C° 0.2 mm 4 m/s 751 mmHg 83%
    15:00 -1°C° 0.3 mm 4 m/s 751 mmHg 85%
    16:00 -1°C° 0.3 mm 4 m/s 750 mmHg 87%
    17:00 -2°C° 0.3 mm 4 m/s 749 mmHg 89%
    18:00 -1°C° 0.1 mm 4 m/s 748 mmHg 89%
    19:00 -1°C° 0.1 mm 4 m/s 747 mmHg 90%
    20:00 -1°C° 0.1 mm 4 m/s 746 mmHg 91%
    21:00 -1°C° 0.1 mm 4 m/s 746 mmHg 91%
    22:00 -1°C° 0.1 mm 4 m/s 745 mmHg 92%
    23:00 -1°C° 0.1 mm 4 m/s 744 mmHg 93%

    Poimâine, 18 Noiembrie, Duminică

    Timp Temperatura Precipitaţii Vânt Presiune Umiditate
    00:00 0°C° 0.2 mm 3 m/s 743 mmHg 94%
    01:00 0°C° 0.2 mm 3 m/s 742 mmHg 94%
    02:00 0°C° 0.2 mm 3 m/s 742 mmHg 95%
    03:00 0°C° 0.2 mm 3 m/s 741 mmHg 95%
    04:00 0°C° 0.2 mm 3 m/s 740 mmHg 95%
    05:00 +1°C° 0.2 mm 2 m/s 740 mmHg 96%
    06:00 +1°C° 0.1 mm 2 m/s 740 mmHg 96%
    07:00 +1°C° 0.1 mm 2 m/s 739 mmHg 97%
    08:00 +1°C° 0.1 mm 2 m/s 739 mmHg 97%
    09:00 +1°C° 0.2 mm 2 m/s 739 mmHg 97%
    10:00 +2°C° 0.2 mm 2 m/s 739 mmHg 96%
    11:00 +2°C° 0.2 mm 2 m/s 739 mmHg 96%
    12:00 +2°C° 0.4 mm 2 m/s 739 mmHg 95%
    13:00 +1°C° 0.4 mm 3 m/s 740 mmHg 95%
    14:00 +1°C° 0.4 mm 3 m/s 740 mmHg 94%
    15:00 +1°C° 0.1 mm 3 m/s 740 mmHg 94%
    16:00 0°C° 0.1 mm 3 m/s 740 mmHg 94%
    17:00 0°C° 0.1 mm 3 m/s 740 mmHg 94%
    18:00 0°C° 0.1 mm 3 m/s 741 mmHg 94%
    19:00 0°C° 0.1 mm 3 m/s 741 mmHg 94%
    20:00 0°C° 0.1 mm 3 m/s 742 mmHg 95%
    21:00 0°C° 0.2 mm 3 m/s 742 mmHg 94%
    22:00 0°C° 0.2 mm 3 m/s 743 mmHg 94%
    23:00 0°C° 0.2 mm 3 m/s 743 mmHg 94%

    19 Noiembrie, Luni

    Timp Temperatura Precipitaţii Vânt Presiune Umiditate
    00:00 0°C° 0.2 mm 3 m/s 743 mmHg 94%
    01:00 0°C° 0.2 mm 3 m/s 744 mmHg 94%
    02:00 0°C° 0.2 mm 3 m/s 744 mmHg 94%
    03:00 0°C° 0.2 mm 3 m/s 744 mmHg 93%
    04:00 0°C° 0.2 mm 3 m/s 744 mmHg 93%
    05:00 0°C° 0.2 mm 3 m/s 745 mmHg 93%
    06:00 0°C° 0.2 mm 3 m/s 745 mmHg 93%
    07:00 0°C° 0.2 mm 3 m/s 745 mmHg 92%
    08:00 -1°C° 0.2 mm 3 m/s 746 mmHg 92%
    09:00 0°C° 0.2 mm 3 m/s 746 mmHg 92%
    10:00 0°C° 0.2 mm 3 m/s 747 mmHg 92%
    11:00 0°C° 0.2 mm 3 m/s 747 mmHg 92%
    12:00 0°C° 0.2 mm 3 m/s 747 mmHg 92%
    13:00 +1°C° 0.2 mm 2 m/s 748 mmHg 92%
    14:00 +1°C° 0.2 mm 2 m/s 748 mmHg 93%
    15:00 -1°C° 0.1 mm 2 m/s 748 mmHg 93%
    16:00 -1°C° 0.1 mm 2 m/s 749 mmHg 93%
    17:00 -1°C° 0.1 mm 3 m/s 749 mmHg 94%
    18:00 -1°C° 0 mm 3 m/s 749 mmHg 93%
    19:00 -1°C° 0 mm 3 m/s 750 mmHg 92%
    20:00 -1°C° 0 mm 3 m/s 750 mmHg 92%
    21:00 -2°C° 0 mm 3 m/s 751 mmHg 92%
    22:00 -2°C° 0 mm 3 m/s 751 mmHg 91%
    23:00 -4°C° 0 mm 3 m/s 752 mmHg 91%

    20 Noiembrie, Marţi

    Timp Temperatura Precipitaţii Vânt Presiune Umiditate
    00:00 -4°C° 0 mm 2 m/s 752 mmHg 91%
    01:00 -5°C° 0 mm 2 m/s 752 mmHg 91%
    02:00 -5°C° 0 mm 2 m/s 752 mmHg 91%
    03:00 -6°C° 0 mm 2 m/s 752 mmHg 89%
    04:00 -6°C° 0 mm 2 m/s 752 mmHg 87%
    05:00 -6°C° 0 mm 2 m/s 752 mmHg 86%
    06:00 -6°C° 0 mm 2 m/s 752 mmHg 84%
    07:00 -6°C° 0 mm 2 m/s 752 mmHg 83%
    08:00 -6°C° 0 mm 2 m/s 752 mmHg 82%
    09:00 -5°C° 0 mm 2 m/s 752 mmHg 80%
    10:00 -4°C° 0 mm 2 m/s 752 mmHg 78%
    11:00 -3°C° 0 mm 2 m/s 752 mmHg 75%
    12:00 -3°C° 0 mm 2 m/s 752 mmHg 77%
    13:00 -3°C° 0 mm 2 m/s 751 mmHg 78%
    14:00 -3°C° 0 mm 2 m/s 751 mmHg 79%
    15:00 -4°C° 0 mm 2 m/s 751 mmHg 81%
    16:00 -4°C° 0 mm 2 m/s 751 mmHg 84%
    17:00 -5°C° 0 mm 2 m/s 750 mmHg 86%
    18:00 -5°C° 0 mm 2 m/s 750 mmHg 85%
    19:00 -5°C° 0 mm 2 m/s 750 mmHg 84%
    20:00 -5°C° 0 mm 2 m/s 750 mmHg 83%
    21:00 -5°C° 0 mm 2 m/s 750 mmHg 83%
    22:00 -3°C° 0 mm 1 m/s 750 mmHg 82%
    23:00 -3°C° 0 mm 1 m/s 749 mmHg 81%

    21 Noiembrie, Miercuri

    Timp Temperatura Precipitaţii Vânt Presiune Umiditate
    00:00 -3°C° 0 mm 1 m/s 749 mmHg 81%
    01:00 -4°C° 0 mm 1 m/s 749 mmHg 81%
    02:00 -4°C° 0 mm 1 m/s 749 mmHg 81%
    03:00 -4°C° 0 mm 1 m/s 748 mmHg 81%
    04:00 -4°C° 0 mm 1 m/s 748 mmHg 81%
    05:00 -6°C° 0 mm 2 m/s 748 mmHg 81%
    06:00 -6°C° 0 mm 2 m/s 748 mmHg 82%
    07:00 -6°C° 0 mm 2 m/s 748 mmHg 83%
    08:00 -6°C° 0 mm 2 m/s 747 mmHg 83%
    09:00 -5°C° 0 mm 2 m/s 747 mmHg 82%
    10:00 -4°C° 0 mm 2 m/s 747 mmHg 80%
    11:00 -3°C° 0 mm 2 m/s 747 mmHg 78%
    12:00 -3°C° 0 mm 2 m/s 746 mmHg 78%
    13:00 -3°C° 0 mm 2 m/s 746 mmHg 79%
    14:00 -3°C° 0 mm 2 m/s 746 mmHg 80%
    15:00 -4°C° 0 mm 2 m/s 745 mmHg 81%
    16:00 -4°C° 0 mm 2 m/s 745 mmHg 83%
    17:00 -6°C° 0 mm 3 m/s 745 mmHg 85%
    18:00 -6°C° 0 mm 3 m/s 745 mmHg 84%
    19:00 -6°C° 0 mm 3 m/s 744 mmHg 82%
    20:00 -6°C° 0 mm 3 m/s 744 mmHg 81%
    21:00 -6°C° 0 mm 3 m/s 744 mmHg 80%
    22:00 -6°C° 0 mm 3 m/s 744 mmHg 79%
    23:00 -6°C° 0 mm 3 m/s 744 mmHg 78%
    Arată mai mult